Weather History for KMQS - January, 2013

Change the Weather History Date:

Thursday, January 10, 2013

  Actual Average (KLNS) Record (KLNS)
Temperature  
Mean Temperature 40 °F -  
Max Temperature 46 °F 36 °F 53 °F (2002)
Min Temperature 35 °F 21 °F 1 °F (2004)
Degree Days  
Heating Degree Days 24    
Moisture  
Dew Point 29 °F    
Average Humidity 61    
Maximum Humidity 75    
Minimum Humidity 50    
Precipitation  
Precipitation 0.00 in - - ()
Sea Level Pressure  
Sea Level Pressure 30.49 in    
Wind  
Wind Speed 10 mph (NW)    
Max Wind Speed 16 mph    
Max Gust Speed 21 mph    
Visibility 10 miles    
Events      
Averages and records for this station are not official NWS values.
T = Trace of Precipitation, MM = Missing Value Source: NWS Daily Summary

Daily Weather History Graph

Daily Weather History Graph

Search for Another Location

Airport or City:

Trip Planner

Search our weather history database for the weather conditions in past years. The results will help you decide how hot, cold, wet, or windy it might be!

Date:

Astronomy

Jan. 10, 2013 Rise Set
Actual Time 7:24 AM EST 4:57 PM EST
Civil Twilight 6:54 AM EST 5:27 PM EST
Nautical Twilight 6:21 AM EST 6:01 PM EST
Astronomical Twilight 5:48 AM EST 6:33 PM EST
Moon 6:02 AM EST (1/10) 4:02 PM EST (1/10)
Length of Visible Light 10h 32m
Length of Day
9h 32m
Waning Crescent, 2% of the Moon is Illuminated
Jan 10
Waning Crescent
Jan 11
New
Jan 18
First Quarter
Jan 26
Full
Feb 3
Last Quarter

Hourly Weather History & Observations

Time (EST) Temp. Windchill Dew Point Humidity Pressure Visibility Wind Dir Wind Speed Gust Speed Precip Events Conditions
12:15 AM 44.6 °F 38.4 °F 32.0 °F 61% 30.33 in 10.0 mi WNW 12.7 mph - N/A   Clear
12:35 AM 44.6 °F 38.1 °F 30.2 °F 57% 30.34 in 10.0 mi WNW 13.8 mph - N/A   Clear
12:55 AM 44.6 °F 38.1 °F 30.2 °F 57% 30.34 in 10.0 mi WNW 13.8 mph - N/A   Clear
1:15 AM 44.6 °F 38.1 °F 28.4 °F 53% 30.35 in 10.0 mi WNW 13.8 mph - N/A   Clear
1:35 AM 42.8 °F 35.1 °F 28.4 °F 57% 30.37 in 10.0 mi WNW 16.1 mph 20.7 mph N/A   Clear
1:55 AM 42.8 °F 36.2 °F 28.4 °F 57% 30.38 in 10.0 mi WNW 12.7 mph - N/A   Clear
3:15 AM 42.8 °F 35.1 °F 28.4 °F 57% 30.40 in 10.0 mi NW 16.1 mph - N/A   Clear
3:35 AM 41.0 °F 34.3 °F 26.6 °F 57% 30.40 in 10.0 mi NW 11.5 mph 17.3 mph N/A   Clear
3:55 AM 41.0 °F 35.8 °F 26.6 °F 57% 30.41 in 10.0 mi NW 8.1 mph - N/A   Clear
4:15 AM 41.0 °F 33.9 °F 26.6 °F 57% 30.41 in 10.0 mi NW 12.7 mph 17.3 mph N/A   Clear
4:35 AM 39.2 °F 34.2 °F 26.6 °F 61% 30.41 in 10.0 mi NW 6.9 mph - N/A   Clear
4:55 AM 41.0 °F 38.0 °F 26.6 °F 57% 30.43 in 10.0 mi WNW 4.6 mph - N/A   Clear
5:15 AM 37.4 °F 30.3 °F 26.6 °F 65% 30.42 in 10.0 mi NW 10.4 mph - N/A   Clear
5:35 AM 37.4 °F 34.9 °F 26.6 °F 65% 30.44 in 10.0 mi SSW 3.5 mph - N/A   Clear
5:55 AM 37.4 °F 32.8 °F 26.6 °F 65% 30.45 in 10.0 mi WNW 5.8 mph - N/A   Clear
6:15 AM 37.4 °F 32.8 °F 28.4 °F 70% 30.46 in 10.0 mi West 5.8 mph - N/A   Clear
6:35 AM 37.4 °F 29.8 °F 28.4 °F 70% 30.46 in 10.0 mi NW 11.5 mph - N/A   Clear
6:55 AM 37.4 °F 30.3 °F 28.4 °F 70% 30.48 in 10.0 mi NW 10.4 mph - N/A   Clear
7:15 AM 37.4 °F 30.3 °F 28.4 °F 70% 30.48 in 10.0 mi NW 10.4 mph - N/A   Clear
7:35 AM 35.6 °F 28.0 °F 28.4 °F 75% 30.49 in 10.0 mi NW 10.4 mph - N/A   Clear
7:55 AM 37.4 °F 30.8 °F 28.4 °F 70% 30.50 in 10.0 mi NW 9.2 mph - N/A   Clear
8:35 AM 39.2 °F 32.0 °F 28.4 °F 65% 30.52 in 10.0 mi NNW 11.5 mph - N/A   Clear
8:55 AM 39.2 °F 33.0 °F 28.4 °F 65% 30.52 in 10.0 mi NW 9.2 mph - N/A   Clear
9:15 AM 39.2 °F 32.5 °F 28.4 °F 65% 30.52 in 10.0 mi NNW 10.4 mph - N/A   Clear
9:35 AM 41.0 °F 34.7 °F 28.4 °F 61% 30.54 in 10.0 mi NW 10.4 mph 17.3 mph N/A   Clear
9:55 AM 42.8 °F 37.5 °F 28.4 °F 57% 30.55 in 10.0 mi North 9.2 mph - N/A   Clear
10:15 AM 42.8 °F 36.2 °F 28.4 °F 57% 30.56 in 10.0 mi NW 12.7 mph - N/A   Clear
10:35 AM 42.8 °F 36.6 °F 28.4 °F 57% 30.56 in 10.0 mi NNW 11.5 mph - N/A   Clear
10:55 AM 44.6 °F 38.1 °F 28.4 °F 53% 30.56 in 10.0 mi NNW 13.8 mph 18.4 mph N/A   Clear
11:15 AM 44.6 °F 39.2 °F 28.4 °F 53% 30.55 in 10.0 mi NW 10.4 mph - N/A   Clear
11:35 AM 44.6 °F 39.7 °F 28.4 °F 53% 30.55 in 10.0 mi NW 9.2 mph - N/A   Clear
11:55 AM 44.6 °F 38.8 °F 28.4 °F 53% 30.54 in 10.0 mi NW 11.5 mph - N/A   Clear
12:15 PM 44.6 °F 38.4 °F 28.4 °F 53% 30.53 in 10.0 mi WNW 12.7 mph - N/A   Clear
12:35 PM 44.6 °F 40.2 °F 28.4 °F 53% 30.52 in 10.0 mi NNW 8.1 mph - N/A   Clear
12:55 PM 46.4 °F 40.7 °F 28.4 °F 50% 30.52 in 10.0 mi WNW 12.7 mph 17.3 mph N/A   Clear
1:15 PM 46.4 °F 41.1 °F 28.4 °F 50% 30.52 in 10.0 mi NW 11.5 mph - N/A   Clear
1:35 PM 46.4 °F 41.9 °F 30.2 °F 53% 30.52 in 10.0 mi WNW 9.2 mph - N/A   Clear
1:55 PM 46.4 °F 41.9 °F 28.4 °F 50% 30.52 in 10.0 mi WNW 9.2 mph - N/A   Clear
2:15 PM 46.4 °F 42.9 °F 30.2 °F 53% 30.52 in 10.0 mi NW 6.9 mph - N/A   Clear
2:35 PM 46.4 °F 42.4 °F 30.2 °F 53% 30.53 in 10.0 mi WNW 8.1 mph - N/A   Clear
2:55 PM 46.4 °F 42.4 °F 30.2 °F 53% 30.52 in 10.0 mi WNW 8.1 mph - N/A   Clear
3:15 PM 46.4 °F 42.4 °F 30.2 °F 53% 30.52 in 10.0 mi WNW 8.1 mph - N/A   Clear
3:35 PM 44.6 °F 40.2 °F 30.2 °F 57% 30.53 in 10.0 mi WNW 8.1 mph - N/A   Clear
3:55 PM 44.6 °F 40.2 °F 30.2 °F 57% 30.53 in 10.0 mi WNW 8.1 mph - N/A   Clear
4:15 PM 42.8 °F 38.0 °F 30.2 °F 61% 30.53 in 10.0 mi WNW 8.1 mph - N/A   Clear
4:35 PM 39.2 °F 34.2 °F 28.4 °F 65% 30.53 in 10.0 mi West 6.9 mph - N/A   Clear
4:55 PM 39.2 °F 35.0 °F 28.4 °F 65% 30.53 in 10.0 mi WNW 5.8 mph - N/A   Clear
5:15 PM 37.4 °F 32.1 °F 28.4 °F 70% 30.53 in 10.0 mi NW 6.9 mph - N/A   Clear
5:35 PM 41.0 °F 36.4 °F 30.2 °F 65% 30.52 in 10.0 mi NW 6.9 mph - N/A   Clear
5:55 PM 41.0 °F 38.0 °F 30.2 °F 65% 30.52 in 10.0 mi NW 4.6 mph - N/A   Clear
6:15 PM 41.0 °F 39.0 °F 28.4 °F 61% 30.52 in 10.0 mi West 3.5 mph - N/A   Clear
6:35 PM 41.0 °F 39.0 °F 28.4 °F 61% 30.52 in 10.0 mi NNW 3.5 mph - N/A   Clear
6:55 PM 39.2 °F 37.0 °F 28.4 °F 65% 30.53 in 10.0 mi NNW 3.5 mph - N/A   Clear
7:15 PM 41.0 °F 39.0 °F 28.4 °F 61% 30.53 in 10.0 mi NNW 3.5 mph - N/A   Clear
7:35 PM 41.0 °F 39.0 °F 28.4 °F 61% 30.53 in 10.0 mi NNW 3.5 mph - N/A   Clear
7:55 PM 41.0 °F 37.1 °F 28.4 °F 61% 30.53 in 10.0 mi North 5.8 mph - N/A   Clear
8:15 PM 41.0 °F 39.0 °F 28.4 °F 61% 30.52 in 10.0 mi North 3.5 mph - N/A   Clear
8:35 PM 39.2 °F - 28.4 °F 65% 30.52 in 10.0 mi Calm Calm - N/A   Clear
8:55 PM 39.2 °F 37.0 °F 28.4 °F 65% 30.53 in 10.0 mi North 3.5 mph - N/A   Clear
9:15 PM 39.2 °F 37.0 °F 28.4 °F 65% 30.53 in 10.0 mi North 3.5 mph - N/A   Clear
9:35 PM 39.2 °F - 28.4 °F 65% 30.53 in 10.0 mi Calm Calm - N/A   Clear
9:55 PM 39.2 °F - 28.4 °F 65% 30.53 in 10.0 mi Calm Calm - N/A   Clear
10:15 PM 39.2 °F 37.0 °F 28.4 °F 65% 30.53 in 10.0 mi North 3.5 mph - N/A   Clear
10:35 PM 39.2 °F 37.0 °F 28.4 °F 65% 30.54 in 10.0 mi NNE 3.5 mph - N/A   Clear
10:55 PM 39.2 °F 37.0 °F 28.4 °F 65% 30.52 in 10.0 mi North 3.5 mph - N/A   Clear
11:15 PM 39.2 °F - 28.4 °F 65% 30.52 in 10.0 mi Calm Calm - N/A   Clear
11:35 PM 39.2 °F 37.0 °F 28.4 °F 65% 30.52 in 10.0 mi ENE 3.5 mph - N/A   Clear